TimeAST,TemperatureF,Dew PointF,Humidity,Sea Level PressureIn,VisibilityMPH,Wind Direction,Wind SpeedMPH,Gust SpeedMPH,PrecipitationIn,Events,Conditions,WindDirDegrees,DateUTC
12:00 AM,35.6,24.8,65,30.04,15.0,NW,13.8,20.7,N/A,,Mostly Cloudy,310,2013-01-15 04:00:00
12:05 AM,35.6,24.8,65,30.03,15.0,NW,12.7,23.0,N/A,,Mostly Cloudy,310,2013-01-15 04:05:00
1:00 AM,33.8,21.2,60,30.04,15.0,NW,15.0,25.3,N/A,,Scattered Clouds,310,2013-01-15 05:00:00
2:00 AM,32,19,46,30.07,15,NW,15.0,,,,Clear,310,2013-01-15 06:00:00
2:00 AM,32.0,19.4,60,30.07,15.0,NW,15.0,23.0,N/A,,Mostly Cloudy,310,2013-01-15 06:00:00
3:00 AM,30.2,17.6,60,30.09,15.0,WNW,10.4,20.7,N/A,,Mostly Cloudy,300,2013-01-15 07:00:00
4:00 AM,30.2,17.6,60,30.09,15.0,WNW,12.7,21.9,N/A,,Mostly Cloudy,300,2013-01-15 08:00:00
5:00 AM,28.4,15.8,59,30.10,15.0,NW,15.0,21.9,N/A,,Mostly Cloudy,310,2013-01-15 09:00:00
6:00 AM,26.6,15.8,64,30.13,15.0,NW,8.1,19.6,N/A,,Mostly Cloudy,310,2013-01-15 10:00:00
7:00 AM,26.6,14.0,59,30.15,15.0,NW,11.5,19.6,N/A,,Mostly Cloudy,310,2013-01-15 11:00:00
8:00 AM,24,13,52,30.17,15,NW,8.1,,,,Scattered Clouds,310,2013-01-15 12:00:00
8:00 AM,24.8,14.0,64,30.17,15.0,NW,6.9,-,N/A,,Scattered Clouds,310,2013-01-15 12:00:00
9:00 AM,24.8,14.0,64,30.19,15.0,NW,9.2,-,N/A,,Partly Cloudy,310,2013-01-15 13:00:00
10:00 AM,24.8,14.0,64,30.21,15.0,NW,11.5,19.6,N/A,,Partly Cloudy,320,2013-01-15 14:00:00
11:00 AM,24.8,14.0,64,30.21,15.0,NW,13.8,21.9,N/A,,Partly Cloudy,310,2013-01-15 15:00:00
12:00 PM,24.8,12.2,59,30.21,15.0,NNW,11.5,18.4,N/A,,Partly Cloudy,330,2013-01-15 16:00:00
1:00 PM,24.8,12.2,59,30.19,15.0,NW,9.2,17.3,N/A,,Partly Cloudy,320,2013-01-15 17:00:00
2:00 PM,25,12,43,30.19,15,NW,9.2,,,,Scattered Clouds,310,2013-01-15 18:00:00
2:00 PM,24.8,12.2,59,30.19,15.0,NW,10.4,-,N/A,,Partly Cloudy,320,2013-01-15 18:00:00
3:00 PM,24.8,10.4,54,30.20,15.0,NNW,9.2,-,N/A,,Partly Cloudy,340,2013-01-15 19:00:00
4:00 PM,23.0,10.4,59,30.20,15.0,NNW,6.9,-,N/A,,Partly Cloudy,330,2013-01-15 20:00:00
5:00 PM,21.2,10.4,63,30.21,15.0,NNW,3.5,-,N/A,,Partly Cloudy,330,2013-01-15 21:00:00
6:00 PM,19.4,10.4,68,30.22,15.0,North,4.6,-,N/A,,Partly Cloudy,350,2013-01-15 22:00:00
7:00 PM,15.8,8.6,73,30.22,15.0,Calm,Calm,-,N/A,,Partly Cloudy,0,2013-01-15 23:00:00
8:00 PM,18,10,60,30.21,15,WSW,4.6,,,,Scattered Clouds,250,2013-01-16 00:00:00
8:00 PM,17.6,10.4,73,30.21,15.0,WSW,4.6,-,N/A,,Partly Cloudy,250,2013-01-16 00:00:00
9:00 PM,17.6,10.4,73,30.23,15.0,SW,5.8,-,N/A,,Partly Cloudy,230,2013-01-16 01:00:00
10:00 PM,15.8,8.6,73,30.22,15.0,West,4.6,-,N/A,,Partly Cloudy,270,2013-01-16 02:00:00
11:00 PM,17.6,8.6,68,30.22,15.0,West,5.8,-,N/A,,Partly Cloudy,260,2013-01-16 03:00:00